NKS2329 KLAS-KLAX

Flight info

Callsign NKS2329
Flight time 0h 46m
Altitude 28000
Route RADYR2 BLAQQ SHTNR ANJLL4
Aircraft A320/M-SDE3FGHIRWY/LB1

Departure

Time 2026-05-04 02:03
Airport Harry Reid International Airport (KLAS)

Arrival

Time 2026-05-04 02:49
Airport Los Angeles International Airport (KLAX)
Time Latitude Longitude Altitude Speed Heading
2026-05-04 01:41 36.08493 -115.15396 2114 ft 0 kts 335°
2026-05-04 01:51 36.08482 -115.15390 2116 ft 4 kts 329°
2026-05-04 01:52 36.08461 -115.15370 2115 ft 4 kts 309°
2026-05-04 01:52 36.08447 -115.15342 2116 ft 4 kts 294°
2026-05-04 01:52 36.08438 -115.15319 2116 ft 0 kts 303°
2026-05-04 01:54 36.08441 -115.15339 2115 ft 8 kts 267°
2026-05-04 01:54 36.08411 -115.15404 2116 ft 9 kts 235°
2026-05-04 01:54 36.08373 -115.15471 2120 ft 11 kts 235°
2026-05-04 01:55 36.08340 -115.15542 2123 ft 8 kts 239°
2026-05-04 01:55 36.08292 -115.15569 2125 ft 9 kts 176°
2026-05-04 01:55 36.08227 -115.15536 2124 ft 10 kts 155°
2026-05-04 01:55 36.08161 -115.15498 2127 ft 10 kts 155°
2026-05-04 01:56 36.08093 -115.15459 2126 ft 12 kts 155°
2026-05-04 01:56 36.08008 -115.15410 2126 ft 15 kts 155°
2026-05-04 01:56 36.07913 -115.15356 2128 ft 15 kts 155°
2026-05-04 01:56 36.07823 -115.15291 2128 ft 16 kts 132°
2026-05-04 01:57 36.07801 -115.15147 2125 ft 19 kts 88°
2026-05-04 01:57 36.07798 -115.14989 2126 ft 20 kts 89°
2026-05-04 01:57 36.07793 -115.14933 2126 ft 20 kts 98°
2026-05-04 01:57 36.07775 -115.14747 2121 ft 24 kts 96°
2026-05-04 01:58 36.07767 -115.14568 2119 ft 15 kts 94°
2026-05-04 01:58 36.07760 -115.14436 2121 ft 16 kts 94°
2026-05-04 01:58 36.07753 -115.14295 2120 ft 17 kts 92°
2026-05-04 01:58 36.07753 -115.14135 2120 ft 19 kts 90°
2026-05-04 01:59 36.07752 -115.13969 2123 ft 19 kts 90°
2026-05-04 01:59 36.07751 -115.13804 2125 ft 20 kts 90°
2026-05-04 01:59 36.07752 -115.13623 2125 ft 21 kts 89°
2026-05-04 01:59 36.07751 -115.13439 2127 ft 22 kts 91°
2026-05-04 02:00 36.07751 -115.13242 2124 ft 23 kts 77°
2026-05-04 02:00 36.07753 -115.13044 2122 ft 24 kts 89°
2026-05-04 02:00 36.07754 -115.12843 2121 ft 19 kts 89°
2026-05-04 02:00 36.07754 -115.12666 2118 ft 17 kts 89°
2026-05-04 02:01 36.07740 -115.12614 2120 ft 1 kts 138°
2026-05-04 02:01 36.07716 -115.12603 2117 ft 10 kts 169°
2026-05-04 02:01 36.07649 -115.12633 2124 ft 10 kts 242°
2026-05-04 02:02 36.07643 -115.12729 2123 ft 14 kts 270°
2026-05-04 02:02 36.07642 -115.13083 2125 ft 73 kts 270°
2026-05-04 02:02 36.07641 -115.13944 2122 ft 125 kts 269°
2026-05-04 02:02 36.07641 -115.15202 2134 ft 166 kts 272°
2026-05-04 02:03 36.07651 -115.16590 2729 ft 157 kts 265°
2026-05-04 02:03 36.07635 -115.17960 3247 ft 162 kts 264°
2026-05-04 02:03 36.07629 -115.19352 3835 ft 161 kts 263°
2026-05-04 02:03 36.07639 -115.20712 4240 ft 163 kts 264°
2026-05-04 02:04 36.07607 -115.22173 4541 ft 172 kts 260°
2026-05-04 02:04 36.07429 -115.23674 4798 ft 185 kts 249°
2026-05-04 02:04 36.06966 -115.25192 5044 ft 196 kts 233°
2026-05-04 02:04 36.05934 -115.26409 5320 ft 212 kts 205°
2026-05-04 02:05 36.04481 -115.26997 5612 ft 236 kts 197°
2026-05-04 02:05 36.02841 -115.27651 5989 ft 257 kts 199°
2026-05-04 02:05 36.01181 -115.28387 6921 ft 252 kts 200°
2026-05-04 02:05 35.99518 -115.29156 7697 ft 259 kts 201°
2026-05-04 02:06 35.97789 -115.29875 8406 ft 266 kts 196°
2026-05-04 02:06 35.95971 -115.30389 9243 ft 268 kts 192°
2026-05-04 02:06 35.94123 -115.30815 10021 ft 272 kts 191°
2026-05-04 02:06 35.92214 -115.31230 10462 ft 289 kts 191°
2026-05-04 02:07 35.90160 -115.31686 10674 ft 310 kts 191°
2026-05-04 02:07 35.88004 -115.32179 11206 ft 318 kts 191°
2026-05-04 02:07 35.85789 -115.32699 11890 ft 322 kts 192°
2026-05-04 02:07 35.83607 -115.33223 12625 ft 325 kts 191°
2026-05-04 02:08 35.81376 -115.33767 13316 ft 328 kts 191°
2026-05-04 02:08 35.79130 -115.34321 13988 ft 330 kts 191°
2026-05-04 02:08 35.76856 -115.34882 14565 ft 335 kts 192°
2026-05-04 02:08 35.74568 -115.35446 15189 ft 337 kts 192°
2026-05-04 02:09 35.72254 -115.36015 15770 ft 341 kts 192°
2026-05-04 02:09 35.69922 -115.36584 16374 ft 343 kts 193°
2026-05-04 02:09 35.67567 -115.37157 16948 ft 347 kts 193°
2026-05-04 02:09 35.65182 -115.37736 17549 ft 350 kts 193°
2026-05-04 02:10 35.62781 -115.38321 18139 ft 354 kts 193°
2026-05-04 02:10 35.60320 -115.38698 18653 ft 360 kts 184°
2026-05-04 02:10 35.57800 -115.38570 19219 ft 364 kts 181°
2026-05-04 02:10 35.55263 -115.38381 19790 ft 366 kts 182°
2026-05-04 02:11 35.52716 -115.38194 20377 ft 368 kts 182°
2026-05-04 02:11 35.50149 -115.38009 20939 ft 370 kts 183°
2026-05-04 02:11 35.47568 -115.37827 21488 ft 372 kts 185°
2026-05-04 02:11 35.45004 -115.37967 22024 ft 365 kts 196°
2026-05-04 02:12 35.42572 -115.38718 22565 ft 358 kts 207°
2026-05-04 02:12 35.40334 -115.40003 23158 ft 353 kts 214°
2026-05-04 02:12 35.38158 -115.41407 23636 ft 354 kts 214°
2026-05-04 02:12 35.35968 -115.42800 24051 ft 357 kts 214°
2026-05-04 02:13 35.33758 -115.44211 24439 ft 359 kts 214°
2026-05-04 02:13 35.31535 -115.45635 24825 ft 362 kts 214°
2026-05-04 02:13 35.29299 -115.47069 25202 ft 364 kts 214°
2026-05-04 02:13 35.27043 -115.48515 25576 ft 367 kts 214°
2026-05-04 02:14 35.24771 -115.49967 25958 ft 369 kts 214°
2026-05-04 02:14 35.22483 -115.51424 26324 ft 372 kts 214°
2026-05-04 02:14 35.20178 -115.52887 26686 ft 375 kts 214°
2026-05-04 02:14 35.17858 -115.54361 27039 ft 377 kts 214°
2026-05-04 02:15 35.15519 -115.55849 27402 ft 380 kts 214°
2026-05-04 02:15 35.13232 -115.57385 27732 ft 378 kts 220°
2026-05-04 02:15 35.11211 -115.59370 27807 ft 366 kts 230°
2026-05-04 02:15 35.09482 -115.61582 27825 ft 357 kts 231°
2026-05-04 02:16 35.07782 -115.63767 27826 ft 354 kts 231°
2026-05-04 02:16 35.06089 -115.65938 27821 ft 352 kts 231°
2026-05-04 02:16 35.04403 -115.68096 27816 ft 351 kts 231°
2026-05-04 02:16 35.02711 -115.70258 27816 ft 351 kts 231°
2026-05-04 02:17 35.01026 -115.72407 27818 ft 351 kts 231°
2026-05-04 02:17 34.99339 -115.74560 27818 ft 351 kts 231°
2026-05-04 02:17 34.97653 -115.76715 27808 ft 351 kts 231°
2026-05-04 02:17 34.95968 -115.78863 27807 ft 351 kts 231°
2026-05-04 02:18 34.94279 -115.81010 27808 ft 351 kts 231°
2026-05-04 02:18 34.92592 -115.83154 27800 ft 351 kts 231°
2026-05-04 02:18 34.90889 -115.85310 27801 ft 353 kts 231°
2026-05-04 02:18 34.89194 -115.87457 27802 ft 352 kts 231°
2026-05-04 02:19 34.87504 -115.89603 27792 ft 351 kts 231°
2026-05-04 02:19 34.85818 -115.91750 27792 ft 351 kts 231°
2026-05-04 02:19 34.84133 -115.93897 27792 ft 351 kts 231°
2026-05-04 02:19 34.82444 -115.96045 27791 ft 351 kts 231°
2026-05-04 02:20 34.80752 -115.98190 27793 ft 350 kts 231°
2026-05-04 02:20 34.79065 -116.00323 27784 ft 350 kts 231°
2026-05-04 02:20 34.77376 -116.02455 27780 ft 350 kts 231°
2026-05-04 02:20 34.75691 -116.04590 27782 ft 350 kts 231°
2026-05-04 02:21 34.74011 -116.06729 27785 ft 350 kts 231°
2026-05-04 02:21 34.72353 -116.08845 27786 ft 350 kts 231°
2026-05-04 02:21 34.70654 -116.11012 27786 ft 349 kts 231°
2026-05-04 02:21 34.68998 -116.13120 27786 ft 349 kts 231°
2026-05-04 02:22 34.67321 -116.15250 27787 ft 350 kts 231°
2026-05-04 02:22 34.65635 -116.17392 27788 ft 349 kts 231°
2026-05-04 02:22 34.63957 -116.19525 27787 ft 349 kts 231°
2026-05-04 02:22 34.62276 -116.21661 27788 ft 349 kts 231°
2026-05-04 02:23 34.60596 -116.23796 27787 ft 349 kts 231°
2026-05-04 02:23 34.58917 -116.25925 27779 ft 349 kts 231°
2026-05-04 02:23 34.57237 -116.28055 27780 ft 349 kts 231°
2026-05-04 02:23 34.55558 -116.30186 27781 ft 349 kts 231°
2026-05-04 02:24 34.53880 -116.32311 27785 ft 349 kts 231°
2026-05-04 02:24 34.52200 -116.34437 27786 ft 349 kts 231°
2026-05-04 02:24 34.50519 -116.36560 27786 ft 349 kts 231°
2026-05-04 02:24 34.48838 -116.38675 27777 ft 349 kts 231°
2026-05-04 02:25 34.47156 -116.40795 27763 ft 348 kts 231°
2026-05-04 02:25 34.45500 -116.42885 27774 ft 348 kts 231°
2026-05-04 02:25 34.43827 -116.44998 27777 ft 347 kts 231°
2026-05-04 02:25 34.42192 -116.47143 27780 ft 344 kts 236°
2026-05-04 02:26 34.40913 -116.49560 27793 ft 340 kts 245°
2026-05-04 02:26 34.39867 -116.52119 27792 ft 339 kts 245°
2026-05-04 02:26 34.38818 -116.54680 27792 ft 339 kts 245°
2026-05-04 02:26 34.37770 -116.57229 27768 ft 339 kts 245°
2026-05-04 02:27 34.36717 -116.59779 27768 ft 339 kts 245°
2026-05-04 02:27 34.35663 -116.62326 27771 ft 339 kts 245°
2026-05-04 02:27 34.34609 -116.64877 27784 ft 339 kts 245°
2026-05-04 02:27 34.33554 -116.67429 27786 ft 339 kts 245°
2026-05-04 02:28 34.32498 -116.70007 27689 ft 346 kts 245°
2026-05-04 02:28 34.31440 -116.72630 27092 ft 346 kts 245°
2026-05-04 02:28 34.30412 -116.75198 26977 ft 333 kts 245°
2026-05-04 02:28 34.29419 -116.77688 26695 ft 326 kts 245°
2026-05-04 02:29 34.28435 -116.80151 26244 ft 324 kts 245°
2026-05-04 02:29 34.27449 -116.82610 25776 ft 324 kts 245°
2026-05-04 02:29 34.26468 -116.85050 25422 ft 321 kts 245°
2026-05-04 02:29 34.25493 -116.87467 25118 ft 318 kts 245°
2026-05-04 02:30 34.24530 -116.89853 24779 ft 315 kts 245°
2026-05-04 02:30 34.23572 -116.92219 24433 ft 311 kts 245°
2026-05-04 02:30 34.22624 -116.94557 24092 ft 308 kts 245°
2026-05-04 02:30 34.21691 -116.96870 23756 ft 307 kts 245°
2026-05-04 02:31 34.20914 -116.99258 23452 ft 309 kts 250°
2026-05-04 02:31 34.20217 -117.01710 23043 ft 299 kts 251°
2026-05-04 02:31 34.19580 -117.04042 22652 ft 295 kts 251°
2026-05-04 02:31 34.18946 -117.06394 22269 ft 294 kts 251°
2026-05-04 02:32 34.18314 -117.08726 21881 ft 293 kts 251°
2026-05-04 02:32 34.17677 -117.11057 21493 ft 292 kts 251°
2026-05-04 02:32 34.17038 -117.13382 21148 ft 290 kts 251°
2026-05-04 02:32 34.16402 -117.15686 20780 ft 289 kts 251°
2026-05-04 02:33 34.15769 -117.17988 20435 ft 289 kts 251°
2026-05-04 02:33 34.15137 -117.20288 20148 ft 287 kts 251°
2026-05-04 02:33 34.14512 -117.22565 19776 ft 286 kts 251°
2026-05-04 02:33 34.13876 -117.24877 19221 ft 290 kts 251°
2026-05-04 02:34 34.13254 -117.27149 19037 ft 282 kts 251°
2026-05-04 02:34 34.12641 -117.29388 18724 ft 279 kts 251°
2026-05-04 02:34 34.12030 -117.31601 18379 ft 277 kts 251°
2026-05-04 02:34 34.11421 -117.33801 17986 ft 276 kts 251°
2026-05-04 02:35 34.10815 -117.35999 17555 ft 276 kts 250°
2026-05-04 02:35 34.10216 -117.38197 17121 ft 276 kts 251°
2026-05-04 02:35 34.09648 -117.40416 16690 ft 276 kts 251°
2026-05-04 02:35 34.09096 -117.42634 16215 ft 274 kts 251°
2026-05-04 02:36 34.08551 -117.44837 15513 ft 275 kts 251°
2026-05-04 02:36 34.08001 -117.47051 14813 ft 276 kts 251°
2026-05-04 02:36 34.07447 -117.49276 14168 ft 277 kts 250°
2026-05-04 02:36 34.06733 -117.51435 13712 ft 278 kts 244°
2026-05-04 02:37 34.05961 -117.53585 13279 ft 280 kts 244°
2026-05-04 02:37 34.05191 -117.55738 12882 ft 279 kts 244°
2026-05-04 02:37 34.04422 -117.57887 12492 ft 279 kts 244°
2026-05-04 02:37 34.03651 -117.60035 12100 ft 279 kts 245°
2026-05-04 02:38 34.02878 -117.62185 11700 ft 279 kts 245°
2026-05-04 02:38 34.02104 -117.64332 11328 ft 280 kts 245°
2026-05-04 02:38 34.01325 -117.66492 10931 ft 281 kts 245°
2026-05-04 02:38 34.00689 -117.68645 10576 ft 275 kts 255°
2026-05-04 02:39 34.00425 -117.70922 10176 ft 274 kts 261°
2026-05-04 02:39 34.00212 -117.73191 10051 ft 274 kts 261°
2026-05-04 02:39 33.99993 -117.75470 9901 ft 275 kts 261°
2026-05-04 02:39 33.99766 -117.77779 9495 ft 277 kts 261°
2026-05-04 02:40 33.99542 -117.80058 9301 ft 267 kts 261°
2026-05-04 02:40 33.99332 -117.82207 9067 ft 253 kts 261°
2026-05-04 02:40 33.99128 -117.84292 8595 ft 249 kts 261°
2026-05-04 02:40 33.98924 -117.86361 8213 ft 249 kts 261°
2026-05-04 02:41 33.98720 -117.88442 7882 ft 252 kts 261°
2026-05-04 02:41 33.98514 -117.90547 7552 ft 253 kts 261°
2026-05-04 02:41 33.98312 -117.92629 7236 ft 250 kts 261°
2026-05-04 02:41 33.98097 -117.94718 6918 ft 251 kts 261°
2026-05-04 02:42 33.97888 -117.96799 6602 ft 247 kts 261°
2026-05-04 02:42 33.97690 -117.98813 6369 ft 234 kts 261°
2026-05-04 02:42 33.97503 -118.00718 6186 ft 227 kts 261°
2026-05-04 02:42 33.97316 -118.02600 5907 ft 226 kts 261°
2026-05-04 02:43 33.97132 -118.04459 5614 ft 220 kts 262°
2026-05-04 02:43 33.96950 -118.06288 5338 ft 220 kts 262°
2026-05-04 02:43 33.96770 -118.08110 5045 ft 219 kts 262°
2026-05-04 02:43 33.96589 -118.09930 4752 ft 218 kts 262°
2026-05-04 02:44 33.96408 -118.11745 4455 ft 218 kts 262°
2026-05-04 02:44 33.96289 -118.12941 4243 ft 218 kts 262°
2026-05-04 02:44 33.96108 -118.14750 3953 ft 216 kts 262°
2026-05-04 02:44 33.95929 -118.16538 3659 ft 213 kts 262°
2026-05-04 02:45 33.95753 -118.18299 3407 ft 210 kts 262°
2026-05-04 02:45 33.95580 -118.20029 3125 ft 207 kts 262°
2026-05-04 02:45 33.95408 -118.21734 2857 ft 203 kts 262°
2026-05-04 02:45 33.95242 -118.23389 2595 ft 195 kts 262°
2026-05-04 02:46 33.95082 -118.24980 2317 ft 185 kts 262°
2026-05-04 02:46 33.94936 -118.26436 2094 ft 162 kts 262°
2026-05-04 02:46 33.94809 -118.27693 1877 ft 143 kts 262°
2026-05-04 02:46 33.94692 -118.28846 1695 ft 135 kts 262°
2026-05-04 02:47 33.94579 -118.29962 1511 ft 134 kts 261°
2026-05-04 02:47 33.94466 -118.31075 1335 ft 132 kts 261°
2026-05-04 02:47 33.94357 -118.32140 1152 ft 129 kts 262°
2026-05-04 02:47 33.94248 -118.33235 993 ft 130 kts 262°
2026-05-04 02:48 33.94144 -118.34299 798 ft 131 kts 263°
2026-05-04 02:48 33.94033 -118.35396 620 ft 134 kts 263°
2026-05-04 02:48 33.93918 -118.36509 457 ft 133 kts 263°
2026-05-04 02:48 33.93807 -118.37598 279 ft 130 kts 263°
2026-05-04 02:49 33.93697 -118.38655 137 ft 120 kts 261°
2026-05-04 02:49 33.93604 -118.39520 126 ft 83 kts 263°
2026-05-04 02:49 33.93541 -118.40007 126 ft 39 kts 271°
2026-05-04 02:49 33.93601 -118.40266 122 ft 23 kts 284°
2026-05-04 02:50 33.93623 -118.40386 123 ft 14 kts 275°
2026-05-04 02:50 33.93615 -118.40577 126 ft 20 kts 262°
2026-05-04 02:50 33.93596 -118.40728 124 ft 17 kts 264°
2026-05-04 02:50 33.93601 -118.40819 124 ft 0 kts 288°
2026-05-04 02:51 33.93603 -118.40826 124 ft 0 kts 288°
2026-05-04 02:52 33.93605 -118.40834 125 ft 5 kts 289°
2026-05-04 02:52 33.93644 -118.40884 125 ft 10 kts 340°
2026-05-04 02:52 33.93722 -118.40899 122 ft 13 kts 349°
2026-05-04 02:52 33.93743 -118.40904 123 ft 2 kts 348°
2026-05-04 02:53 33.93755 -118.40907 123 ft 2 kts 349°
2026-05-04 02:53 33.93799 -118.40914 124 ft 9 kts 354°
2026-05-04 02:53 33.93853 -118.40936 122 ft 8 kts 307°
2026-05-04 02:53 33.93855 -118.41005 126 ft 9 kts 264°
2026-05-04 02:54 33.93847 -118.41088 126 ft 11 kts 265°
2026-05-04 02:54 33.93842 -118.41183 126 ft 12 kts 264°
2026-05-04 02:54 33.93831 -118.41288 126 ft 13 kts 268°
2026-05-04 02:54 33.93820 -118.41402 126 ft 14 kts 269°
2026-05-04 02:55 33.93926 -118.41441 123 ft 5 kts 128°
2026-05-04 02:55 33.93912 -118.41406 125 ft 5 kts 91°
2026-05-04 02:55 33.93913 -118.41366 126 ft 1 kts 88°